FW2285 Weather Reports


Display with metric or nautical units.
time (UTC)temp
F
wind
direction
speed
MPH
gust
MPH
rain 1hr
in
rain 24hr
in
rain mn
in
humidity
%
barometer
mb
20260901190052 99 169 1.0 4.0 0.00 0.00 0.00 23 1014.3
20260901184544 99 92 1.0 4.0 0.00 0.00 0.00 26 1014.4
20260901183100 98 138 1.0 7.0 0.00 0.00 0.00 27 1014.6
20260901181536 98 157 2.0 6.0 0.00 0.00 0.00 28 1014.9
20260901180034 97 293 1.0 7.0 0.00 0.00 0.00 28 1015.1
20260901174532 96 205 3.0 9.0 0.00 0.00 0.00 28 1015.1
20260901173036 95 119 1.0 7.0 0.00 0.00 0.00 31 1015.4
20260901171525 94 191 1.0 6.0 0.00 0.00 0.00 34 1015.7
20260901170022 93 110 0.0 8.0 0.00 0.00 0.00 33 1015.5
20260901164518 92 107 1.0 5.0 0.00 0.00 0.00 34 1015.8
20260901163014 91 351 1.0 3.0 0.00 0.00 0.00 36 1016.0
20260901161510 89 261 0.0 7.0 0.00 0.00 0.00 40 1016.0
20260901160008 88 123 1.0 7.0 0.00 0.00 0.00 38 1016.1
20260901154502 87 126 0.0 4.0 0.00 0.00 0.00 43 1016.0
20260901153106 85 115 0.0 3.0 0.00 0.00 0.00 45 1016.1
20260901151553 84 121 0.0 3.0 0.00 0.00 0.00 51 1016.1
20260901150101 82 121 0.0 1.0 0.00 0.00 0.00 52 1016.1
20260901144546 80 128 0.0 3.0 0.00 0.00 0.00 54 1016.2
20260901143042 78 134 0.0 3.0 0.00 0.00 0.00 56 1016.1
20260901141553 76 138 0.0 3.0 0.00 0.00 0.00 57 1016.2
20260901140045 74 158 0.0 1.0 0.00 0.00 0.00 60 1016.2
20260901134538 73 159 0.0 1.0 0.00 0.00 0.00 60 1016.3
20260901133038 72 159 0.0 0.0 0.00 0.00 0.00 61 1016.4
20260901131539 71 159 0.0 1.0 0.00 0.00 0.00 62 1016.3
20260901130038 70 159 0.0 0.0 0.00 0.00 0.00 63 1016.3
20260901124544 69 159 0.0 0.0 0.00 0.00 0.00 63 1016.1
20260901123033 69 159 0.0 0.0 0.00 0.00 0.00 63 1015.9
20260901121531 69 159 0.0 0.0 0.00 0.00 0.00 62 1015.7
20260901120030 69 159 0.0 0.0 0.00 0.00 0.00 61 1015.6
20260901114528 69 159 0.0 0.0 0.00 0.00 0.00 60 1015.5
20260901113026 69 159 0.0 0.0 0.00 0.00 0.00 60 1015.3
20260901111524 70 159 0.0 0.0 0.00 0.00 0.00 60 1015.2
20260901110023 70 159 0.0 0.0 0.00 0.00 0.00 59 1015.2
20260901104521 71 159 0.0 0.0 0.00 0.00 0.00 59 1015.0
20260901103020 71 159 0.0 0.0 0.00 0.00 0.00 59 1014.9
20260901101518 71 159 0.0 0.0 0.00 0.00 0.00 59 1014.9
20260901100018 71 159 0.0 0.0 0.00 0.00 0.00 60 1014.7
20260901094522 71 159 0.0 0.0 0.00 0.00 0.00 61 1014.6
20260901093015 70 159 0.0 0.0 0.00 0.00 0.00 61 1014.6
20260901091514 70 159 0.0 0.0 0.00 0.00 0.00 60 1014.4
20260901090012 71 159 0.0 0.0 0.00 0.00 0.00 60 1014.2
20260901084511 71 159 0.0 0.0 0.00 0.00 0.00 60 1014.1
20260901083010 71 159 0.0 0.0 0.00 0.00 0.00 59 1014.1
20260901081507 72 159 0.0 0.0 0.00 0.00 0.00 59 1014.1
20260901080006 72 159 0.0 0.0 0.00 0.00 0.00 59 1013.9
20260901074505 72 159 0.0 0.0 0.00 0.00 0.00 58 1013.9
20260901073003 72 159 0.0 0.0 0.00 0.00 0.00 58 1014.2
20260901071502 73 159 0.0 0.0 0.00 0.00 0.00 56 1014.2
20260901070100 73 159 0.0 0.0 0.00 0.00 0.00 56 1014.3
20260901064612 74 159 0.0 0.0 0.00 0.00 0.00 55 1014.1
20260901063058 74 159 0.0 0.0 0.00 0.00 0.00 54 1014.3
20260901061555 75 159 0.0 0.0 0.00 0.00 0.00 54 1014.5
20260901060052 75 159 0.0 0.0 0.00 0.00 0.00 53 1014.5
20260901054551 76 159 0.0 0.0 0.00 0.00 0.00 53 1014.5
20260901053058 76 159 0.0 0.0 0.00 0.00 0.00 52 1014.4
20260901051551 77 159 0.0 0.0 0.00 0.00 0.00 51 1014.2
20260901050043 77 159 0.0 0.0 0.00 0.00 0.00 52 1014.3
20260901044544 78 159 0.0 0.0 0.00 0.00 0.00 52 1014.2
20260901043043 78 159 0.0 0.0 0.00 0.00 0.00 52 1013.8
20260901041542 78 159 0.0 0.0 0.00 0.00 0.00 52 1013.8
20260901040042 79 159 0.0 0.0 0.00 0.00 0.00 52 1013.6
20260901034542 79 159 0.0 0.0 0.00 0.00 0.00 52 1013.5
20260901033044 80 159 0.0 0.0 0.00 0.00 0.00 52 1013.4
20260901031541 81 159 0.0 0.0 0.00 0.00 0.00 51 1013.4
20260901030040 81 159 0.0 0.0 0.00 0.00 0.00 51 1013.2
20260901024540 82 159 0.0 0.0 0.00 0.00 0.00 50 1013.1
20260901023039 83 159 0.0 0.0 0.00 0.00 0.00 49 1013.1
20260901021539 83 159 0.0 0.0 0.00 0.00 0.00 49 1012.9
20260901020038 84 159 0.0 0.0 0.00 0.00 0.00 48 1012.8
20260901014538 86 159 0.0 0.0 0.00 0.00 0.00 45 1012.7
20260901013038 87 159 0.0 0.0 0.00 0.00 0.00 42 1012.5
20260901011540 89 159 0.0 0.0 0.00 0.00 0.00 39 1012.5
20260901010041 91 159 0.0 0.0 0.00 0.00 0.00 35 1012.4
20260901004536 93 159 0.0 0.0 0.00 0.00 0.00 33 1012.3
20260901003036 95 159 0.0 0.0 0.00 0.00 0.00 33 1012.3
20260901001536 96 159 0.0 0.0 0.00 0.00 0.00 32 1012.3
20260901000038 97 159 0.0 0.0 0.00 0.00 0.00 32 1012.3
20260831234540 98 159 0.0 1.0 0.00 0.00 0.00 30 1012.2
20260831233034 98 159 0.0 1.0 0.00 0.00 0.00 32 1012.2
20260831231535 98 159 0.0 3.0 0.00 0.00 0.00 30 1012.2
20260831230035 99 263 0.0 3.0 0.00 0.00 0.00 29 1012.3
20260831224536 99 219 1.0 4.0 0.00 0.00 0.00 28 1012.2
20260831223032 100 203 0.0 3.0 0.00 0.00 0.00 26 1012.3
20260831221534 100 320 0.0 6.0 0.00 0.00 0.00 27 1012.2
20260831220030 100 261 0.0 7.0 0.00 0.00 0.00 26 1012.4
20260831214529 101 267 0.0 4.0 0.00 0.00 0.00 27 1012.4
20260831213029 101 203 1.0 7.0 0.00 0.00 0.00 26 1012.5
20260831211532 101 327 0.0 5.0 0.00 0.00 0.00 27 1012.4
20260831210034 100 225 3.0 9.0 0.00 0.00 0.00 26 1012.4
20260831204537 100 234 0.0 6.0 0.00 0.00 0.00 31 1012.6
20260831203025 100 256 2.0 8.0 0.00 0.00 0.00 29 1012.7
20260831201524 100 139 2.0 8.0 0.00 0.00 0.00 27 1012.7
20260831200022 100 257 0.0 6.0 0.00 0.00 0.00 28 1012.7
20260831194519 100 275 1.0 5.0 0.00 0.00 0.00 28 1012.8
20260831193028 99 98 1.0 5.0 0.00 0.00 0.00 31 1012.9
20260831191512 99 244 2.0 6.0 0.00 0.00 0.00 30 1013.0